Flag for Netherlands Weather past 2 weeks in Eindhoven, Netherlands

Now
68 °F

Overcast.


Feels Like: 68 °F
Forecast: 45 / 63 °F
Wind: 7 mph from Northwest

Location: Eindhoven Airport

Current Time: May 22, 2015 at 6:32:41 PM

Latest Report: May 22, 2015 at 5:55 PM


Visibility: N/A

Pressure: 30.21 "Hg

Humidity: 40%

Dew point: 43 °F

Location of EindhovenLocation

Historic Weather in Eindhoven — Graph

°F

Eindhoven temperature yesterday

Maximum temperature yesterday: 66 °F (at 3:55 PM)
Minimum temperature yesterday: 37 °F (at 4:55 AM)
Average temperature yesterday: 53 °F

Past Weeks' High & Low Weather Summary

 TemperatureHumidityPressure
High81 °F (May 11, 5:25 PM)100% (May 8, 12:25 AM)30.33 "Hg (May 8, 12:25 AM)
Low37 °F (May 14, 4:25 AM)30% (May 11, 6:25 PM)29.65 "Hg (May 18, 5:25 PM)
Average55 °F70%30.06 "Hg
* Reported May 7 5:25 PM — May 22 5:25 PM, Eindhoven, Weather by CustomWeather, © 2015

Note: Actual official high and low records may vary slightly from our data, if they occured in-between our weather recording intervals... More about our weather records

Advertising

Eindhoven weather history for previous 24 hours

 ConditionsComfort  
Time TempWeatherWind HumidityBarometerVisibility
5:25 PM
Fri, May 22
68 °FMostly cloudy.5 mph43%30.21 "HgN/A
4:55 PM70 °FBroken clouds.9 mph40%30.21 "HgN/A
4:25 PM68 °FScattered clouds.5 mph43%30.21 "HgN/A
3:55 PM68 °FOvercast.6 mph43%30.21 "HgN/A
3:25 PM66 °FPartly sunny.8 mph49%30.24 "HgN/A
2:55 PM68 °FMore clouds than sun.8 mph43%30.24 "HgN/A
2:25 PM70 °FOvercast.6 mph43%30.24 "HgN/A
1:55 PM66 °FMostly cloudy.9 mph49%30.27 "HgN/A
1:25 PM66 °FOvercast.10 mph46%30.27 "HgN/A
12:55 PM68 °FPassing clouds.9 mph46%30.27 "HgN/A
12:25 PM66 °FMild.9 mph46%30.27 "HgN/A
11:55 AM64 °FPassing clouds.10 mph49%30.30 "HgN/A
11:25 AM64 °FPartly sunny.9 mph52%30.30 "HgN/A
10:55 AM64 °FOvercast.12 mph46%30.30 "HgN/A
10:25 AM63 °FPartly sunny.8 mph52%30.30 "HgN/A
9:55 AM59 °FOvercast.7 mph63%30.30 "HgN/A
9:25 AM59 °FOvercast.7 mph63%30.30 "HgN/A
8:55 AM57 °FOvercast.9 mph67%30.30 "HgN/A
8:25 AM57 °FMostly cloudy.6 mph63%30.30 "HgN/A
7:55 AM54 °FOvercast.7 mph72%30.30 "HgN/A
7:25 AM54 °FOvercast.7 mph72%30.30 "HgN/A
6:55 AM52 °FOvercast.7 mph72%30.30 "HgN/A
6:25 AM50 °FMostly cloudy.6 mph76%30.30 "HgN/A
5:55 AM50 °FOvercast.7 mph82%30.30 "HgN/A
5:25 AM50 °FOvercast.5 mph82%30.30 "HgN/A
4:55 AM50 °FOvercast.3 mph82%30.30 "HgN/A
4:25 AM50 °FOvercast.2 mph82%30.33 "HgN/A
3:55 AM50 °FOvercast.2 mph88%30.33 "HgN/A
3:25 AM50 °FOvercast.1 mph88%30.33 "HgN/A
2:55 AM50 °FOvercast.1 mph88%30.33 "HgN/A
2:25 AM50 °FOvercast.2 mph82%30.33 "HgN/A
1:55 AM50 °FOvercast.1 mph88%30.33 "HgN/A
1:25 AM50 °FOvercast.1 mph82%30.33 "HgN/A
12:55 AM50 °FOvercast.2 mph82%30.33 "HgN/A
12:25 AM50 °FMostly cloudy.2 mph82%30.33 "HgN/A
11:55 PM
Thu, May 21
50 °FOvercast.2 mph82%30.33 "HgN/A
11:25 PM52 °FOvercast.2 mph77%30.33 "HgN/A
10:55 PM54 °FOvercast.3 mph67%30.33 "HgN/A
10:25 PM54 °FOvercast.3 mph67%30.33 "HgN/A
9:55 PM52 °FOvercast.2 mph72%30.33 "HgN/A
9:25 PM55 °FPartly sunny.3 mph59%30.30 "HgN/A
8:55 PM55 °FOvercast.5 mph59%30.30 "HgN/A
8:25 PM57 °FRefreshingly cool.8 mph55%30.30 "HgN/A
7:55 PM61 °FRefreshingly cool.9 mph48%30.30 "HgN/A
7:25 PM61 °FRefreshingly cool.10 mph52%30.27 "HgN/A
6:55 PM63 °FMild.12 mph45%30.27 "HgN/A
6:25 PM63 °FMore clouds than sun.10 mph45%30.27 "HgN/A
Weather by CustomWeather, © 2015

See weather overviewHow to use our weather pages